{"data":{"norad_id":69556,"intl_designator":"2026-135L","name":"STARLINK-37927","alt_names":[],"object_type":"PAYLOAD","status":"ACTIVE","operator":null,"country":"US","launch_date":"2026-06-15","launch_site_code":"AFWTR","launch_vehicle":null,"mission":null,"orbit_class":"UNKNOWN","rcs_meters":null,"size_class":null,"mass_kg":null,"dimensions":null,"purposes":["comms"],"wikipedia_slug":null,"has_3d_model":false,"image_url":null,"decayed_at":null,"tle_current":{"epoch":"2026-09-19T19:21:53.613792Z","epoch_age_seconds":81572,"freshness":"FRESH","line1":"1 69556U 26135L   26262.80687053  .00016702  00000+0  51815-3 0  9991","line2":"2 69556  97.2843 290.4961 0001162 243.0267 117.0857 15.33468242 14890","mean_motion":15.33468242,"eccentricity":0.0001162,"inclination_deg":97.2843,"raan_deg":290.4961,"arg_perigee_deg":243.0267,"mean_anomaly_deg":117.0857,"bstar":0.00051815,"rev_number":1489,"period_min":93.904781368143,"perigee_km":464.67879591076,"apogee_km":466.26925111262,"semimajor_km":6843.6110235117,"source":"CELESTRAK","updated_at":"2026-09-20T09:00:44.243629Z"}}}